HELLAS-SAT 4 & SGS-1

Last updated on Thu Oct 03 2024 00:02:41 GMT+0000 (Coordinated Universal Time)

1 44034U 19007A 24276.26577337 .00000152 00000+0 00000+0 0 9999 2 44034 0.0636 130.7108 0005823 29.3982 346.0714 1.00276049 21112
UTC large
Height (km)
Speed (km/s)
/
Latitude / Longitude
Inclination (degrees)
Orbital Period (minutes)
Azimuth
Elevation
Range (km)
Doppler Factor

Next 0 passes for location: London (51.5072 / 0.1276)

Sorry there are no passes over London.